Vorticity
7 7 15 24 16 5 5 13 14 9 5 3 2 5 5 7 10 8 11 19 16 7 1 6 15 17 21 25 25 20 13 12 9 7 7 4 5 6 5 2 -5 -2 9 16 16 12 9 4 3 6 4 5 6 8 10 5 18 23 -3 -2 8 -1 7 8 9 26 16 4 10 5 3 7 8 11 9 7 8 5 5 7 9 10 9 10 9 8
6 9 13 17 16 11 7 9 13 12 11 8 4 3 4 8 9 7 17 25 23 17 7 6 10 15 25 15 9 23 21 10 11 10 8 4 2 4 6 4 -2 1 8 13 22 21 9 4 2 2 3 5 3 1 5 8 21 12 -20 -11 9 1 7 8 4 19 15 6 14 9 4 6 5 7 8 8 7 5 7 8 9 9 9 10 9 8
5 10 13 12 12 12 8 8 11 12 13 12 9 6 5 8 6 10 23 13 5 18 16 13 11 13 23 -1 -16 20 28 9 8 9 7 6 2 6 12 12 5 -3 -5 5 19 15 7 8 4 2 4 -1 -2 7 10 12 22 10 -14 -2 13 6 9 9 11 24 6 -12 6 13 5 4 4 6 6 6 7 8 10 9 8 8 11 12 10 9
5 9 11 10 11 11 10 10 9 10 12 12 13 13 9 7 7 17 30 13 -0 15 13 7 10 7 14 1 -14 17 32 14 9 5 2 8 8 8 7 5 -0 -7 -7 2 13 12 8 4 -3 6 13 1 5 21 15 8 9 1 -2 15 17 9 10 6 15 31 3 -22 0 11 3 5 7 5 6 6 7 9 8 7 8 9 12 11 8 8
6 8 9 11 12 11 10 8 9 11 11 11 12 13 12 12 14 22 30 15 -1 13 10 -5 4 10 8 6 -4 6 23 18 7 1 3 7 5 2 4 7 2 -4 -4 2 11 13 3 -6 -7 5 17 16 14 14 16 25 26 15 12 17 11 3 6 6 15 27 4 -14 7 14 6 7 7 4 5 6 6 6 6 6 8 10 10 8 6 6
8 7 7 9 11 12 12 9 9 11 10 11 11 12 14 15 21 22 18 8 -4 11 19 -3 -0 15 8 4 -0 -4 12 19 2 -5 5 10 8 3 6 12 5 -3 -1 4 11 9 -2 1 6 4 3 7 11 15 21 17 11 13 7 -1 2 4 4 10 20 23 8 4 19 19 9 7 6 6 7 6 7 5 4 6 7 9 9 7 6 6
7 8 10 10 8 10 13 11 10 9 9 12 11 13 15 18 25 19 11 12 -0 1 21 10 -0 13 12 6 2 -8 6 25 10 -6 2 10 11 4 -0 2 -0 -1 2 2 7 10 7 7 6 5 4 5 8 6 6 -1 -8 4 8 -3 4 14 11 12 21 18 5 10 22 15 8 6 3 4 4 5 7 5 5 5 6 8 8 7 7 6
8 6 9 11 10 10 11 13 13 10 9 10 12 15 17 25 25 9 6 15 3 -3 14 14 3 9 12 5 2 -4 5 29 24 1 -4 -2 1 1 -2 -1 -3 -2 -0 0 8 9 0 -7 -5 5 13 17 12 -4 11 38 22 7 20 20 11 11 9 8 15 15 7 12 20 12 6 5 6 10 11 8 6 3 3 4 5 8 9 8 6 6
10 9 10 11 10 9 10 12 10 9 10 11 19 20 16 25 20 2 5 8 -0 4 11 10 6 7 9 7 9 10 7 19 23 9 -3 -8 -6 -2 -2 -1 -1 0 2 6 10 2 -9 -3 11 17 11 10 10 4 25 43 13 -6 14 21 12 9 9 9 12 13 12 18 18 11 9 12 15 20 18 12 5 2 3 4 6 8 8 8 8 10
10 10 9 8 7 9 13 13 9 12 13 9 18 23 17 21 16 1 3 2 1 9 5 2 4 -1 -1 2 6 13 10 8 15 15 6 -1 -2 -0 1 5 7 8 9 6 6 4 1 10 18 14 7 6 10 16 22 15 7 13 12 5 11 14 10 12 12 8 10 15 15 12 13 12 9 8 9 10 8 6 6 6 7 9 8 8 10 12
10 8 5 7 7 8 12 14 14 13 11 9 15 19 17 23 20 3 -3 -1 4 11 2 -2 5 3 -1 -4 -9 -8 -6 -7 -4 2 3 3 5 2 -0 4 5 4 4 1 6 11 9 9 11 8 8 8 6 11 9 -5 2 15 12 18 29 19 10 13 13 9 9 11 11 12 12 6 -0 0 6 12 15 14 10 7 8 9 9 9 10 11
8 7 8 12 12 9 6 7 8 6 8 15 17 13 15 24 24 7 -5 -6 -2 6 4 1 7 9 6 9 5 -4 -5 -2 -3 -1 1 6 11 5 -0 2 0 -1 1 5 11 11 7 13 20 17 13 13 17 28 26 12 15 22 26 40 38 20 18 18 12 11 13 15 15 10 8 5 -1 -2 5 9 13 14 10 8 9 8 9 12 11 8
10 10 11 13 12 9 6 6 8 6 7 13 14 11 13 22 26 12 -4 -6 -3 1 4 2 7 11 9 18 29 23 15 15 19 23 17 9 8 6 4 5 4 4 6 8 6 0 3 17 22 16 13 13 17 30 30 23 24 14 3 9 16 24 28 15 5 6 8 14 19 17 13 7 -2 -3 5 6 7 9 9 8 8 8 11 14 14 9
13 10 9 12 10 6 9 16 20 15 8 13 20 18 12 16 24 18 1 -6 -4 -1 2 1 3 10 10 11 20 26 20 14 20 31 24 8 4 8 8 5 3 3 2 -2 -2 3 9 14 13 9 12 14 12 15 18 14 6 -6 -8 0 10 23 22 6 0 5 5 6 12 17 13 2 -5 -0 5 4 2 4 6 8 8 8 11 13 12 10
12 10 9 10 11 8 6 10 21 20 9 10 19 19 13 8 13 21 14 6 7 8 8 5 -1 1 1 -5 1 15 19 11 9 18 17 5 1 6 8 6 2 -1 1 6 13 18 14 11 13 11 12 17 19 19 18 12 0 1 18 26 19 16 13 5 5 5 5 6 8 11 8 0 0 4 4 3 4 5 5 7 8 7 10 10 8 8
8 11 11 11 11 10 1 -1 15 23 8 1 9 13 14 10 8 14 14 13 18 12 3 5 6 2 -5 -13 -9 5 14 13 4 2 7 8 5 5 5 4 2 1 9 22 28 23 15 14 18 15 12 16 20 17 13 13 14 15 20 22 17 13 6 2 4 2 1 5 8 11 12 11 7 4 3 3 5 6 5 7 8 7 8 7 6 6
8 8 8 9 9 9 6 5 18 24 7 -1 11 14 12 15 15 9 5 9 15 8 -3 0 9 11 6 -3 -7 -3 9 22 20 4 -1 5 4 1 6 8 8 8 9 14 18 15 11 11 13 15 15 14 14 12 8 13 19 14 11 15 16 14 11 9 7 5 4 5 5 6 10 12 8 2 2 6 9 9 8 9 11 8 6 6 4 4
9 7 6 10 10 8 7 5 12 18 3 -2 14 17 8 13 19 10 2 6 9 6 2 6 13 17 18 14 8 5 1 9 24 18 4 3 2 1 9 11 9 9 3 2 8 8 6 9 13 17 15 9 9 9 7 8 7 2 2 8 12 12 12 11 9 7 6 3 1 3 5 8 10 6 1 4 8 8 6 10 15 11 5 6 5 2
7 10 9 10 9 8 6 3 8 15 8 2 9 10 4 11 22 18 8 5 4 4 3 4 9 13 16 13 12 15 5 -3 11 19 9 6 8 9 10 6 9 15 7 -1 -1 -2 2 7 9 12 14 11 8 4 4 9 12 13 13 10 8 9 7 5 6 7 4 -0 2 6 6 5 8 9 9 8 4 -0 -1 4 15 16 7 6 9 7
5 8 11 10 5 4 7 7 8 11 12 9 3 4 5 6 13 18 14 7 4 9 12 6 3 9 16 11 4 9 9 1 4 10 9 10 10 9 10 7 11 17 11 3 -1 -3 1 5 4 7 13 14 10 7 11 14 5 4 9 4 -2 2 6 5 5 5 2 -1 2 6 10 11 6 3 7 9 3 -3 -4 -0 10 18 11 4 8 11
6 5 8 9 4 2 5 8 9 9 11 10 3 4 8 4 5 11 12 9 4 6 14 14 10 10 10 8 6 7 9 6 5 6 6 12 15 14 12 10 9 12 11 9 9 7 5 5 3 3 8 13 11 7 11 11 -3 -10 -4 -1 -4 0 7 7 7 9 6 7 11 9 8 10 4 0 7 13 10 3 2 6 11 17 17 7 -0 1
7 5 3 5 4 1 2 5 12 14 10 7 4 2 2 3 8 10 7 7 7 4 5 9 13 13 8 7 7 7 9 8 7 8 6 7 13 15 16 15 14 15 13 10 11 10 9 13 11 5 6 9 6 4 4 4 3 1 0 0 1 4 7 6 7 8 6 12 19 11 6 6 3 7 16 19 19 13 8 12 14 13 17 15 3 -4
6 7 4 5 3 1 3 3 9 14 7 3 5 4 1 2 8 11 6 3 5 6 6 7 8 9 9 7 4 8 17 16 9 5 5 4 5 10 12 11 11 13 13 13 15 13 11 19 22 13 4 3 7 8 3 0 6 7 3 2 3 6 9 9 9 5 4 12 17 10 10 11 5 4 8 9 13 16 13 13 14 10 11 16 12 3
7 6 8 9 3 -0 2 2 8 18 14 4 5 9 5 -1 2 8 8 4 3 4 5 5 5 6 7 7 7 9 12 18 19 11 4 3 3 5 4 0 2 8 9 8 11 12 9 10 13 9 4 7 11 7 3 8 13 11 8 6 5 9 13 13 12 8 5 11 18 15 13 16 12 1 -5 -2 0 5 9 9 10 13 12 15 16 10
10 4 7 12 7 1 1 1 4 15 17 6 3 9 8 2 -1 2 5 4 4 6 7 5 2 3 5 5 9 10 4 7 18 18 17 16 11 8 9 9 10 9 5 3 3 8 11 9 6 6 9 14 12 9 15 17 6 2 7 8 11 17 15 11 11 9 6 7 10 9 9 18 22 8 -2 1 -1 -1 10 11 10 16 19 16 14 9
11 5 3 7 9 4 1 0 -2 3 12 11 6 5 7 7 3 2 3 2 0 3 9 12 9 5 4 0 1 6 7 3 -1 -2 2 7 11 14 11 7 10 12 14 15 11 11 14 13 10 9 9 7 2 2 9 6 -3 4 13 13 15 19 12 7 9 9 10 13 10 4 6 12 17 15 13 10 -2 -2 11 14 13 19 21 17 12 6
16 12 2 -1 7 8 3 2 0 -1 5 13 16 10 4 5 6 4 4 3 1 1 3 7 9 8 7 7 5 5 7 8 5 1 -3 -3 8 18 9 -0 8 17 21 20 18 23 25 19 16 15 10 8 9 10 11 10 12 18 21 18 15 14 12 11 10 8 10 18 19 12 7 6 8 17 24 14 -2 1 9 6 8 16 16 14 12 7
26 27 14 2 3 7 8 6 4 3 1 3 12 17 8 1 2 3 5 7 9 9 7 4 4 5 4 5 6 4 6 10 12 15 15 11 8 7 4 5 8 7 5 7 12 22 25 18 13 16 19 20 20 23 25 21 15 13 14 12 7 7 12 10 9 13 13 15 20 15 7 7 7 10 18 15 6 8 8 2 4 9 8 9 12 11
18 20 21 15 5 2 7 9 6 8 7 0 1 10 12 8 5 4 3 4 5 7 9 9 8 8 8 5 4 5 5 4 2 5 9 7 -2 -5 4 15 13 5 4 9 11 12 16 14 5 4 11 9 1 9 16 9 3 7 6 1 1 9 15 11 10 14 11 10 18 19 11 8 5 1 10 19 14 8 7 9 11 10 7 6 7 9
18 11 19 31 26 10 2 3 4 8 12 10 6 5 5 6 10 12 6 -0 -1 -0 3 6 7 6 7 8 10 10 8 3 -1 2 10 15 11 6 5 8 10 9 11 12 8 3 6 10 8 5 5 0 -4 5 5 -10 -11 1 3 2 8 13 13 14 13 11 8 9 14 13 5 1 4 7 14 22 16 7 9 14 15 19 20 11 4 8
23 17 20 34 44 33 14 4 6 11 12 9 9 14 15 11 11 15 11 3 1 1 -1 -0 3 4 5 6 6 6 9 7 4 9 16 20 24 23 14 12 17 17 13 11 8 5 6 8 8 9 8 6 7 10 7 0 1 6 6 8 12 9 7 10 10 8 8 9 8 5 4 7 15 21 22 17 9 6 14 15 8 11 19 12 2 6
11 14 12 18 33 35 20 6 4 11 15 6 -3 3 16 18 15 17 17 9 6 7 3 -3 -3 -2 -0 1 -2 -3 2 4 8 16 16 13 27 39 29 20 23 19 11 9 8 6 7 7 7 8 8 8 9 9 9 10 10 9 8 7 6 6 6 5 6 7 8 8 8 7 9 10 10 10 10 10 12 11 10 7 -1 -1 12 22 18 12
5 12 12 12 22 26 21 18 16 18 28 26 8 -1 7 15 16 19 22 19 16 15 9 1 -1 -1 -0 0 -3 -3 1 -1 -1 5 2 -6 4 14 3 -7 -2 -1 -2 3 5 4 8 10 8 9 12 12 11 10 9 7 8 8 8 8 7 8 8 6 7 8 7 7 7 7 7 4 -0 -1 -1 1 7 4 -4 -4 3 8 13 21 21 12
7 17 20 15 19 24 24 28 30 26 31 35 24 11 11 16 16 17 19 18 19 19 18 14 6 -1 -1 2 3 4 5 6 11 17 12 -3 -12 -14 -16 -15 -10 -8 -7 -6 -3 5 14 15 13 15 19 20 17 16 13 10 10 9 7 7 6 5 6 7 8 7 7 8 8 7 7 5 4 5 2 -3 -2 -1 -2 4 13 16 9 7 16 18
3 15 21 10 8 18 20 18 20 20 21 25 24 16 12 13 15 20 24 22 18 15 17 21 16 8 5 11 21 30 27 18 18 26 28 19 7 -0 1 7 12 16 18 15 14 16 10 5 8 12 12 14 19 21 20 14 11 11 11 12 10 6 3 4 6 8 8 9 8 7 7 6 4 4 4 5 6 5 4 4 4 5 1 -0 12 15
-4 2 5 -7 -12 3 14 10 9 11 10 12 16 17 19 20 13 10 14 20 23 21 19 21 22 21 14 3 2 18 28 20 11 15 26 34 33 30 29 31 29 24 20 18 19 18 7 -1 1 -1 -8 -4 2 5 8 7 5 5 5 3 1 -1 -2 1 6 8 8 8 9 8 6 5 5 5 5 8 10 9 6 3 0 1 -1 -4 -3 -7
2 3 4 -1 -4 6 13 5 3 7 10 12 10 3 8 20 21 17 15 13 13 15 15 16 18 18 11 -6 -19 -18 -13 -11 -7 3 17 27 28 20 13 9 5 -1 -4 -5 -5 -1 3 6 5 -1 -7 -8 -11 -14 -10 -5 1 7 9 6 2 1 1 2 3 3 3 5 6 6 6 5 4 4 3 3 5 6 6 7 6 4 4 3 -0 -5
11 9 10 12 13 20 21 14 13 14 11 12 10 -1 -5 0 6 17 24 20 17 17 15 15 17 16 15 13 10 4 -6 -11 -6 -4 -6 -7 -6 -10 -11 -6 -3 -5 -3 1 2 2 5 8 11 11 9 5 1 -3 -5 -6 -3 -1 -1 3 9 11 10 8 5 4 5 5 3 2 3 5 5 5 4 4 4 4 3 5 7 7 8 9 7 5
8 9 12 12 9 10 11 8 13 17 11 7 11 11 9 1 -8 -7 1 6 12 15 13 13 16 17 18 19 23 28 24 17 17 12 1 -7 -9 -8 -4 5 11 9 7 7 7 8 10 12 13 12 9 8 10 10 8 5 3 -2 -9 -7 -1 -0 -0 0 2 4 6 7 9 8 5 4 4 4 5 6 6 6 5 4 7 8 8 9 9 10
5 7 12 13 8 4 2 -0 3 10 12 11 9 8 11 12 6 2 -0 1 6 7 6 8 11 12 14 14 17 23 26 24 22 20 15 9 5 4 2 1 5 12 15 13 11 11 11 10 10 9 7 6 6 7 8 7 7 6 4 2 -1 -4 -4 -1 1 4 8 11 14 15 13 11 9 8 7 5 4 5 3 1 2 4 4 3 5 7
8 4 4 6 6 4 3 2 2 3 6 10 13 11 9 9 10 11 9 9 13 16 16 14 12 11 11 10 10 13 17 19 20 20 19 16 13 12 8 3 1 2 6 10 13 11 4 -2 -3 -1 3 5 4 4 6 6 5 6 6 6 5 5 5 7 9 11 14 16 16 15 15 14 13 14 14 13 13 14 13 11 11 10 8 5 4 5
10 8 7 12 17 20 19 15 11 9 7 5 7 10 9 8 10 12 11 5 -0 2 12 16 16 16 15 12 9 8 8 10 11 12 14 14 13 13 13 14 13 11 11 12 11 9 8 9 8 5 5 7 8 7 5 5 5 5 5 5 6 7 9 12 12 8 2 -2 -3 -0 2 2 2 4 7 9 11 12 12 13 14 14 14 13 11 9
11 7 4 7 12 17 19 19 18 21 21 16 11 10 9 8 8 11 14 12 2 -6 -2 3 5 9 11 11 10 8 6 6 7 8 9 10 11 13 13 14 14 12 13 13 10 10 14 19 21 20 18 17 17 16 15 13 11 9 9 8 6 5 4 4 5 4 1 -4 -6 -3 1 3 3 4 5 5 3 2 0 -0 0 1 3 4 6 6
16 14 9 8 9 7 1 -1 2 6 10 14 14 13 13 11 10 9 9 12 11 6 0 -3 -1 2 3 2 4 7 8 9 10 11 11 11 12 13 12 11 9 6 4 5 6 7 8 9 13 17 17 16 16 16 17 17 16 15 14 13 12 11 9 7 7 9 10 9 8 7 9 11 11 12 12 12 11 9 8 7 6 6 5 5 5 5
15 15 14 14 15 14 8 3 3 3 3 6 8 10 12 12 11 12 12 11 12 11 6 3 5 8 9 6 4 4 6 7 9 9 10 9 10 11 12 12 12 9 6 5 5 6 7 7 7 8 8 9 9 10 10 12 13 13 12 13 13 14 16 17 16 14 11 11 11 10 9 8 9 9 9 9 9 9 9 9 10 10 11 11 10 10
16 15 15 13 12 14 13 10 9 9 9 9 10 9 11 10 8 10 13 13 14 13 9 3 -1 1 6 10 10 8 7 7 7 7 6 5 5 5 6 8 8 9 9 8 7 7 7 7 7 7 8 8 7 7 7 8 7 7 7 7 7 9 9 9 8 8 9 9 9 8 7 7 7 7 7 7 7 7 7 7 7 6 6 6 6 6
18 17 16 16 15 16 16 14 14 14 13 12 10 9 8 8 7 8 8 10 15 21 23 19 12 6 4 5 5 3 3 5 7 5 4 5 6 6 5 6 6 6 6 6 6 6 6 6 7 7 7 7 8 7 6 6 6 6 6 5 5 5 5 5 5 6 7 6 6 6 5 5 4 3 2 2 3 4 5 5 4 4 4 4 4 5
12 13 12 13 15 16 16 15 16 17 17 16 15 14 13 10 8 8 7 8 11 12 10 8 8 6 6 7 7 5 4 6 8 8 7 8 8 8 8 7 7 7 6 5 5 6 7 6 5 4 4 5 5 4 2 1 2 3 5 6 6 6 6 7 7 7 6 6 6 5 5 3 2 1 2 4 6 7 8 8 8 8 8 9 9 9
10 12 11 11 13 14 13 12 11 10 12 16 17 18 18 16 14 12 11 10 12 11 6 3 3 4 4 4 6 7 7 6 6 7 7 7 7 8 8 9 9 9 7 7 7 6 7 6 4 4 4 4 3 1 1 0 1 2 3 3 3 5 5 5 5 4 4 3 3 3 3 2 2 4 7 9 10 10 9 10 10 10 10 10 9 9
9 9 10 10 10 11 12 13 13 11 10 12 14 14 15 15 15 16 15 14 13 14 14 14 13 13 11 8 6 6 5 4 4 5 5 4 2 2 2 4 6 6 6 6 7 7 7 7 5 4 4 4 4 3 3 3 4 4 4 4 5 5 5 5 5 4 3 2 2 2 1 1 3 7 9 8 7 8 8 8 8 7 7 8 9 11
11 9 9 7 7 8 9 12 14 14 13 13 13 13 14 14 14 14 15 15 15 16 16 17 16 16 16 15 14 13 11 9 6 4 4 5 5 3 2 2 3 2 2 2 3 4 5 5 5 5 6 6 6 5 5 6 6 5 5 6 6 6 6 6 6 5 4 3 2 2 2 4 6 7 7 7 8 8 9 10 12 12 11 10 11 13
Height
5726 5727 5729 5731 5734 5735 5734 5735 5737 5739 5740 5740 5741 5742 5744 5745 5747 5750 5751 5752 5751 5750 5750 5752 5754 5757 5760 5762 5764 5765 5766 5766 5766 5765 5765 5767 5768 5770 5772 5774 5776 5778 5780 5781 5781 5782 5782 5781 5781 5781 5781 5782 5782 5781 5782 5785 5784 5783 5784 5785 5787 5788 5789 5790 5790 5789 5791 5791 5790 5791 5792 5792 5793 5793 5793 5794 5794 5795 5796 5797 5797 5798 5798 5798 5799 5799
5723 5725 5728 5730 5731 5730 5731 5732 5734 5735 5736 5738 5738 5740 5741 5743 5746 5749 5750 5749 5747 5747 5748 5750 5751 5753 5756 5759 5761 5762 5762 5764 5764 5763 5763 5765 5766 5768 5770 5772 5774 5776 5777 5778 5779 5780 5779 5777 5777 5777 5777 5779 5780 5780 5781 5782 5781 5781 5781 5781 5783 5785 5786 5787 5787 5788 5788 5789 5789 5789 5790 5790 5791 5792 5792 5792 5793 5794 5795 5796 5796 5797 5797 5798 5798 5798
5722 5725 5727 5727 5726 5727 5728 5730 5731 5733 5734 5735 5736 5737 5739 5741 5744 5747 5748 5746 5744 5745 5746 5748 5748 5751 5754 5756 5758 5760 5760 5762 5762 5761 5762 5763 5765 5767 5768 5770 5773 5775 5775 5776 5776 5776 5775 5774 5772 5773 5774 5776 5778 5779 5779 5777 5777 5778 5778 5779 5780 5782 5783 5784 5784 5785 5786 5787 5789 5789 5789 5789 5790 5790 5791 5791 5792 5793 5794 5794 5795 5796 5796 5796 5796 5796
5721 5723 5723 5723 5723 5725 5726 5727 5728 5730 5731 5732 5734 5735 5737 5740 5741 5743 5745 5743 5743 5743 5744 5746 5747 5749 5751 5752 5755 5757 5759 5760 5760 5759 5761 5762 5764 5765 5767 5769 5772 5773 5773 5773 5773 5772 5772 5770 5769 5771 5774 5774 5774 5776 5776 5774 5774 5775 5776 5777 5778 5779 5780 5781 5782 5783 5784 5786 5788 5788 5788 5788 5788 5789 5789 5789 5790 5791 5793 5793 5794 5794 5794 5795 5795 5795
5719 5719 5719 5720 5721 5722 5723 5725 5726 5727 5729 5730 5732 5733 5735 5738 5738 5740 5741 5740 5741 5742 5743 5745 5745 5746 5748 5749 5752 5755 5756 5758 5758 5758 5759 5761 5762 5762 5764 5767 5769 5770 5771 5770 5770 5769 5769 5768 5767 5770 5773 5772 5772 5774 5773 5771 5770 5772 5774 5775 5776 5778 5779 5779 5780 5782 5783 5785 5786 5786 5786 5786 5786 5787 5787 5788 5789 5790 5791 5792 5792 5793 5793 5793 5793 5793
5717 5716 5717 5718 5719 5720 5721 5722 5724 5725 5727 5728 5729 5731 5733 5735 5736 5737 5737 5737 5739 5740 5740 5742 5743 5744 5745 5747 5750 5752 5755 5757 5756 5757 5758 5759 5759 5760 5762 5765 5767 5768 5768 5768 5767 5767 5767 5766 5765 5766 5768 5769 5770 5772 5771 5768 5768 5770 5772 5773 5774 5776 5777 5777 5779 5780 5782 5783 5784 5784 5783 5784 5784 5785 5786 5786 5787 5788 5789 5790 5791 5791 5791 5791 5791 5792
5714 5713 5715 5716 5717 5718 5719 5720 5721 5722 5724 5726 5727 5729 5730 5732 5733 5734 5735 5735 5737 5737 5738 5740 5740 5742 5744 5746 5748 5750 5753 5754 5754 5755 5756 5755 5756 5758 5760 5763 5765 5766 5765 5765 5765 5765 5765 5765 5765 5765 5766 5767 5767 5769 5769 5767 5766 5767 5768 5770 5771 5773 5775 5776 5777 5778 5779 5780 5781 5781 5781 5781 5782 5783 5784 5785 5786 5787 5787 5788 5788 5789 5789 5789 5789 5790
5711 5711 5713 5714 5714 5715 5717 5718 5719 5720 5721 5723 5725 5726 5728 5729 5730 5732 5732 5733 5734 5735 5736 5737 5738 5739 5742 5744 5746 5748 5751 5752 5751 5752 5752 5752 5753 5756 5759 5761 5763 5763 5763 5763 5763 5764 5764 5765 5765 5764 5764 5764 5764 5765 5765 5764 5764 5764 5765 5767 5769 5771 5772 5773 5774 5775 5776 5777 5778 5779 5779 5780 5781 5781 5782 5783 5784 5785 5785 5786 5787 5787 5788 5788 5788 5788
5708 5709 5711 5711 5712 5713 5715 5716 5716 5717 5719 5721 5722 5723 5724 5726 5727 5728 5729 5730 5732 5732 5734 5735 5736 5737 5740 5742 5744 5746 5748 5749 5749 5750 5749 5749 5751 5754 5757 5760 5761 5760 5761 5761 5761 5762 5763 5763 5763 5761 5762 5763 5763 5764 5763 5762 5762 5763 5764 5765 5767 5768 5769 5770 5771 5772 5773 5774 5776 5776 5777 5778 5779 5780 5780 5781 5782 5783 5783 5784 5785 5786 5786 5786 5787 5787
5706 5707 5707 5708 5709 5711 5713 5714 5714 5715 5717 5718 5719 5720 5722 5723 5724 5726 5727 5729 5730 5730 5732 5734 5734 5736 5738 5740 5742 5744 5745 5746 5748 5749 5748 5748 5750 5753 5756 5758 5758 5758 5759 5759 5760 5759 5758 5758 5759 5759 5760 5761 5762 5762 5762 5761 5760 5761 5762 5764 5765 5766 5767 5768 5768 5769 5771 5772 5773 5774 5775 5776 5777 5778 5778 5779 5780 5780 5781 5783 5784 5784 5784 5785 5785 5785
5704 5704 5704 5705 5707 5708 5710 5711 5713 5714 5715 5716 5717 5718 5720 5721 5722 5724 5726 5727 5727 5727 5729 5731 5732 5734 5736 5738 5740 5741 5742 5744 5746 5747 5747 5747 5749 5752 5754 5755 5756 5757 5757 5758 5758 5756 5755 5755 5757 5758 5759 5759 5760 5761 5761 5761 5760 5760 5761 5761 5762 5763 5765 5765 5766 5767 5768 5769 5770 5772 5773 5774 5775 5776 5777 5777 5778 5778 5779 5781 5782 5783 5784 5784 5784 5784
5701 5702 5703 5704 5705 5706 5707 5709 5711 5712 5713 5714 5714 5716 5718 5719 5721 5722 5724 5725 5725 5725 5728 5730 5731 5731 5733 5736 5737 5738 5740 5741 5743 5744 5745 5746 5748 5750 5752 5754 5755 5756 5756 5756 5756 5755 5755 5756 5756 5757 5757 5758 5758 5759 5759 5760 5759 5759 5759 5760 5760 5761 5762 5763 5763 5764 5766 5767 5768 5770 5771 5772 5773 5774 5775 5775 5776 5777 5777 5779 5780 5782 5782 5783 5783 5783
5698 5700 5701 5701 5702 5704 5705 5707 5709 5710 5711 5712 5712 5714 5715 5717 5718 5720 5722 5723 5722 5724 5727 5729 5729 5730 5731 5733 5734 5735 5737 5739 5740 5741 5742 5744 5747 5749 5752 5753 5753 5754 5754 5755 5755 5754 5755 5756 5756 5756 5756 5757 5757 5757 5758 5758 5758 5758 5759 5760 5760 5760 5760 5761 5761 5763 5764 5765 5767 5769 5770 5771 5771 5772 5773 5774 5774 5775 5775 5777 5778 5779 5780 5781 5781 5782
5695 5697 5698 5699 5700 5701 5704 5705 5707 5709 5710 5711 5711 5712 5713 5714 5716 5718 5719 5720 5721 5723 5726 5727 5728 5728 5729 5730 5731 5733 5735 5736 5737 5738 5740 5742 5745 5748 5750 5750 5751 5752 5752 5753 5753 5753 5754 5755 5755 5755 5755 5757 5757 5756 5757 5757 5757 5757 5758 5759 5760 5761 5760 5760 5761 5762 5763 5764 5766 5767 5768 5769 5770 5771 5771 5772 5772 5773 5773 5774 5775 5777 5778 5779 5780 5780
5692 5694 5695 5697 5698 5700 5702 5704 5706 5707 5709 5709 5710 5711 5711 5712 5714 5716 5717 5719 5720 5722 5724 5725 5726 5726 5726 5727 5729 5732 5733 5733 5735 5737 5738 5741 5743 5744 5746 5747 5749 5750 5751 5751 5751 5752 5753 5755 5754 5754 5755 5755 5755 5755 5755 5755 5755 5756 5757 5758 5760 5761 5760 5760 5760 5761 5762 5763 5765 5766 5767 5768 5768 5769 5769 5770 5770 5770 5771 5772 5773 5774 5776 5777 5778 5778
5690 5692 5694 5695 5697 5699 5701 5703 5704 5705 5706 5707 5708 5709 5710 5711 5713 5714 5716 5717 5718 5720 5722 5723 5722 5722 5723 5725 5727 5730 5731 5732 5733 5735 5737 5739 5741 5742 5743 5745 5746 5748 5749 5749 5749 5751 5752 5753 5753 5753 5753 5753 5753 5753 5753 5753 5753 5754 5756 5757 5759 5760 5760 5760 5760 5760 5761 5762 5763 5764 5765 5766 5766 5767 5767 5767 5768 5768 5769 5769 5770 5772 5773 5774 5775 5776
5687 5690 5692 5693 5695 5697 5699 5701 5702 5703 5704 5705 5706 5707 5709 5710 5712 5713 5714 5715 5716 5718 5719 5719 5719 5719 5720 5722 5724 5726 5728 5729 5730 5732 5734 5737 5739 5740 5741 5742 5744 5745 5747 5747 5747 5748 5749 5749 5750 5751 5751 5751 5751 5751 5752 5752 5752 5752 5754 5757 5758 5759 5759 5759 5759 5760 5760 5761 5762 5762 5763 5764 5764 5764 5764 5764 5765 5766 5766 5767 5768 5769 5770 5772 5773 5774
5685 5687 5689 5691 5693 5695 5696 5698 5699 5700 5702 5703 5705 5706 5707 5708 5709 5710 5712 5713 5714 5716 5717 5717 5716 5717 5717 5718 5720 5723 5726 5727 5728 5729 5731 5734 5736 5737 5739 5740 5741 5742 5743 5744 5745 5746 5746 5746 5747 5748 5748 5749 5750 5750 5751 5751 5751 5751 5753 5755 5757 5758 5759 5759 5759 5759 5759 5759 5759 5760 5760 5760 5760 5760 5761 5761 5762 5763 5764 5764 5765 5767 5768 5769 5770 5771
5681 5684 5686 5689 5690 5692 5693 5695 5696 5697 5699 5701 5702 5703 5704 5705 5706 5708 5709 5710 5712 5713 5714 5715 5714 5714 5714 5715 5717 5720 5723 5725 5726 5727 5729 5731 5733 5735 5737 5738 5738 5738 5739 5741 5742 5743 5743 5743 5744 5745 5746 5748 5749 5750 5750 5751 5751 5751 5752 5753 5755 5757 5758 5758 5758 5758 5757 5757 5756 5756 5756 5757 5757 5758 5759 5760 5760 5761 5762 5763 5764 5765 5766 5767 5768 5769
5678 5681 5684 5686 5687 5689 5690 5691 5693 5694 5696 5698 5699 5699 5701 5702 5703 5705 5706 5708 5710 5711 5712 5713 5712 5712 5713 5714 5715 5718 5720 5722 5723 5725 5726 5728 5730 5732 5734 5736 5736 5736 5737 5738 5739 5740 5740 5741 5741 5742 5744 5745 5747 5748 5749 5750 5751 5751 5752 5753 5754 5755 5756 5756 5756 5756 5755 5753 5752 5751 5752 5753 5755 5756 5757 5758 5759 5760 5760 5761 5762 5763 5764 5765 5766 5767
5676 5678 5682 5684 5685 5687 5688 5688 5689 5691 5692 5695 5696 5697 5698 5700 5701 5702 5704 5706 5708 5709 5710 5710 5710 5710 5712 5713 5714 5716 5718 5719 5720 5722 5724 5726 5728 5730 5732 5733 5734 5734 5735 5736 5737 5737 5738 5738 5739 5740 5741 5743 5744 5746 5747 5748 5749 5750 5750 5751 5752 5753 5754 5753 5753 5753 5752 5751 5750 5750 5751 5753 5754 5755 5756 5757 5758 5758 5759 5760 5761 5762 5762 5763 5764 5765
5673 5675 5678 5682 5683 5684 5684 5685 5687 5688 5690 5692 5693 5694 5696 5697 5699 5701 5702 5703 5704 5706 5707 5708 5709 5709 5710 5711 5712 5714 5715 5717 5718 5719 5721 5723 5725 5727 5728 5730 5731 5732 5733 5734 5734 5735 5735 5736 5737 5738 5739 5740 5741 5742 5744 5745 5746 5747 5747 5749 5749 5750 5750 5750 5750 5750 5751 5751 5752 5753 5754 5755 5756 5756 5756 5756 5757 5756 5756 5757 5758 5759 5759 5760 5761 5762
5670 5672 5675 5679 5681 5682 5681 5682 5684 5686 5687 5689 5690 5692 5694 5695 5697 5698 5700 5701 5702 5703 5704 5706 5707 5707 5708 5708 5709 5712 5714 5715 5717 5718 5719 5721 5722 5723 5725 5726 5728 5729 5730 5731 5732 5732 5733 5733 5734 5736 5737 5738 5739 5740 5741 5742 5743 5743 5744 5745 5746 5747 5748 5748 5748 5748 5748 5749 5749 5750 5751 5753 5753 5753 5754 5754 5754 5753 5753 5754 5755 5756 5756 5757 5758 5759
5668 5670 5672 5676 5679 5679 5679 5679 5681 5684 5685 5686 5687 5689 5691 5693 5694 5696 5698 5699 5700 5701 5702 5704 5704 5705 5706 5706 5707 5710 5712 5713 5715 5715 5716 5718 5719 5720 5722 5723 5725 5726 5727 5728 5729 5730 5731 5731 5732 5734 5735 5735 5736 5737 5738 5740 5740 5741 5742 5742 5743 5745 5745 5745 5745 5745 5746 5747 5747 5747 5747 5748 5749 5749 5750 5751 5752 5751 5751 5752 5752 5752 5753 5753 5754 5756
5666 5667 5669 5672 5675 5676 5676 5676 5677 5680 5683 5684 5685 5687 5688 5690 5691 5693 5695 5697 5698 5698 5700 5701 5702 5703 5704 5704 5705 5708 5710 5711 5712 5713 5714 5715 5717 5718 5719 5721 5723 5724 5724 5725 5726 5728 5728 5729 5730 5731 5732 5732 5733 5734 5735 5737 5738 5739 5740 5740 5741 5742 5743 5743 5743 5743 5744 5745 5746 5746 5746 5746 5746 5747 5748 5748 5749 5749 5749 5749 5750 5750 5750 5751 5752 5752
5663 5664 5666 5669 5671 5672 5674 5674 5674 5677 5680 5681 5682 5684 5686 5687 5689 5690 5692 5694 5695 5696 5697 5698 5699 5701 5702 5702 5703 5705 5707 5709 5711 5711 5712 5714 5715 5717 5717 5718 5720 5721 5721 5721 5723 5725 5726 5727 5728 5728 5729 5730 5730 5731 5733 5734 5735 5736 5737 5737 5738 5739 5740 5741 5741 5741 5742 5743 5743 5744 5743 5743 5744 5745 5745 5746 5746 5747 5747 5747 5747 5748 5748 5749 5749 5750
5660 5661 5663 5665 5667 5669 5670 5672 5672 5674 5676 5678 5679 5681 5682 5684 5686 5688 5689 5691 5693 5693 5694 5695 5696 5698 5700 5700 5701 5702 5704 5707 5709 5709 5710 5712 5714 5715 5715 5716 5717 5718 5718 5718 5720 5722 5724 5724 5725 5726 5728 5728 5729 5730 5731 5732 5733 5733 5734 5735 5736 5737 5738 5738 5738 5739 5739 5739 5740 5741 5741 5741 5741 5742 5743 5744 5744 5745 5746 5745 5745 5746 5746 5747 5747 5748
5656 5658 5659 5661 5663 5666 5667 5668 5669 5670 5672 5674 5676 5678 5680 5681 5683 5685 5686 5688 5689 5691 5692 5693 5695 5697 5698 5698 5698 5700 5701 5703 5705 5706 5707 5709 5711 5712 5713 5714 5714 5715 5715 5716 5718 5719 5720 5721 5723 5724 5725 5726 5727 5727 5728 5729 5730 5731 5732 5733 5734 5735 5735 5735 5736 5736 5737 5737 5738 5738 5739 5739 5740 5741 5742 5743 5743 5744 5744 5744 5744 5743 5744 5744 5745 5745
5653 5655 5656 5657 5660 5662 5663 5665 5666 5666 5668 5669 5671 5674 5677 5679 5681 5682 5683 5684 5686 5687 5689 5690 5692 5694 5695 5695 5696 5698 5699 5701 5702 5703 5705 5707 5708 5709 5709 5710 5711 5712 5713 5714 5716 5717 5718 5719 5720 5721 5722 5724 5725 5725 5725 5726 5727 5728 5729 5730 5731 5732 5733 5733 5734 5735 5735 5735 5736 5737 5737 5738 5740 5740 5741 5741 5742 5742 5741 5741 5741 5741 5741 5741 5742 5742
5650 5652 5654 5655 5655 5657 5659 5661 5662 5663 5665 5666 5668 5670 5673 5676 5678 5680 5681 5682 5682 5684 5685 5686 5689 5691 5692 5693 5694 5695 5697 5699 5700 5701 5703 5704 5705 5706 5707 5708 5709 5709 5710 5712 5713 5714 5715 5716 5717 5719 5720 5721 5722 5723 5723 5724 5725 5726 5727 5728 5729 5730 5731 5732 5733 5734 5734 5734 5734 5735 5736 5736 5737 5737 5737 5738 5738 5738 5738 5738 5738 5738 5738 5738 5739 5740
5648 5649 5651 5652 5651 5652 5655 5658 5658 5660 5663 5665 5665 5667 5669 5672 5674 5676 5678 5679 5680 5681 5682 5683 5685 5687 5689 5691 5692 5692 5694 5695 5697 5699 5700 5701 5702 5702 5703 5704 5705 5706 5707 5708 5710 5711 5712 5713 5714 5716 5717 5718 5719 5720 5720 5721 5722 5723 5725 5725 5726 5728 5729 5730 5731 5731 5731 5732 5732 5732 5732 5733 5733 5733 5733 5734 5735 5735 5735 5735 5735 5735 5736 5736 5736 5737
5646 5646 5648 5649 5649 5650 5653 5655 5656 5658 5661 5661 5662 5663 5666 5668 5671 5673 5674 5675 5676 5678 5679 5681 5682 5683 5685 5687 5689 5690 5690 5692 5694 5695 5695 5697 5698 5698 5699 5700 5702 5703 5705 5706 5707 5708 5709 5710 5711 5712 5713 5714 5715 5716 5717 5718 5719 5720 5721 5722 5723 5725 5725 5726 5727 5727 5727 5728 5728 5728 5729 5730 5730 5730 5730 5731 5733 5733 5733 5733 5733 5733 5733 5733 5733 5734
5643 5644 5645 5646 5647 5648 5650 5651 5652 5654 5656 5656 5658 5661 5663 5665 5667 5670 5671 5672 5673 5674 5676 5678 5679 5681 5683 5684 5685 5686 5686 5688 5691 5692 5692 5694 5694 5695 5696 5698 5699 5701 5703 5704 5705 5706 5706 5707 5708 5709 5710 5711 5712 5713 5714 5715 5716 5717 5718 5718 5719 5720 5721 5721 5722 5722 5723 5724 5724 5725 5725 5726 5727 5727 5727 5728 5730 5731 5731 5731 5732 5732 5731 5730 5730 5731
5641 5642 5643 5644 5645 5647 5648 5648 5649 5650 5651 5652 5654 5658 5660 5661 5663 5665 5667 5669 5670 5672 5674 5675 5677 5679 5681 5682 5682 5682 5683 5686 5688 5688 5690 5691 5692 5693 5694 5695 5697 5698 5700 5701 5702 5703 5704 5704 5705 5705 5706 5707 5708 5709 5710 5711 5712 5713 5714 5715 5715 5716 5717 5717 5718 5718 5719 5720 5721 5722 5722 5723 5724 5724 5725 5725 5727 5728 5728 5728 5729 5729 5728 5728 5727 5728
5640 5641 5641 5642 5643 5645 5646 5647 5647 5648 5649 5650 5652 5655 5657 5658 5660 5662 5664 5666 5668 5669 5671 5673 5674 5676 5679 5680 5680 5680 5681 5683 5685 5685 5686 5687 5689 5690 5691 5693 5695 5696 5696 5697 5698 5700 5701 5701 5702 5702 5703 5703 5704 5704 5705 5707 5707 5708 5709 5710 5711 5712 5713 5714 5715 5715 5716 5717 5719 5719 5720 5721 5721 5722 5722 5723 5724 5724 5725 5725 5725 5725 5725 5725 5724 5724
5638 5639 5640 5640 5641 5642 5644 5645 5645 5646 5647 5648 5649 5652 5654 5655 5657 5659 5660 5662 5664 5665 5666 5669 5671 5673 5675 5677 5678 5678 5678 5679 5681 5683 5684 5684 5686 5688 5688 5689 5692 5692 5693 5693 5694 5695 5697 5699 5699 5700 5701 5701 5701 5700 5701 5702 5703 5704 5705 5705 5706 5708 5709 5710 5711 5712 5713 5713 5714 5716 5716 5717 5717 5718 5718 5719 5720 5721 5721 5722 5722 5721 5721 5722 5721 5720
5635 5637 5637 5638 5639 5640 5641 5642 5643 5644 5646 5646 5647 5649 5650 5652 5654 5655 5657 5658 5660 5661 5663 5665 5667 5669 5671 5672 5674 5676 5676 5676 5678 5680 5682 5682 5683 5684 5685 5685 5687 5688 5689 5690 5690 5692 5693 5695 5696 5697 5698 5698 5698 5698 5699 5699 5700 5700 5700 5701 5702 5703 5704 5705 5707 5708 5709 5709 5710 5711 5712 5712 5713 5714 5714 5715 5716 5716 5717 5717 5718 5717 5718 5718 5717 5717
5632 5634 5635 5636 5637 5638 5639 5640 5641 5642 5643 5644 5645 5646 5648 5650 5651 5652 5653 5655 5656 5658 5660 5661 5663 5664 5666 5667 5669 5671 5672 5672 5674 5677 5679 5679 5679 5679 5680 5681 5682 5684 5685 5686 5687 5688 5689 5690 5691 5692 5693 5694 5695 5695 5696 5697 5697 5697 5697 5697 5698 5698 5699 5700 5701 5703 5703 5704 5705 5706 5707 5708 5709 5709 5710 5710 5711 5711 5712 5712 5713 5713 5713 5713 5713 5713
5630 5631 5632 5634 5634 5636 5637 5638 5639 5640 5641 5642 5643 5645 5646 5648 5649 5650 5651 5652 5653 5655 5657 5658 5659 5660 5662 5663 5664 5666 5667 5668 5670 5672 5674 5674 5675 5675 5676 5677 5678 5679 5681 5682 5683 5683 5684 5685 5686 5687 5688 5689 5690 5691 5692 5693 5694 5694 5694 5694 5695 5695 5695 5696 5697 5698 5698 5699 5700 5700 5701 5702 5703 5703 5704 5704 5705 5705 5706 5706 5706 5706 5707 5707 5707 5708
5627 5628 5630 5631 5632 5633 5634 5636 5637 5638 5639 5640 5641 5642 5644 5645 5647 5648 5649 5650 5651 5653 5654 5655 5656 5657 5658 5659 5660 5661 5662 5664 5665 5667 5668 5669 5670 5670 5672 5673 5674 5674 5676 5677 5677 5678 5679 5680 5681 5682 5683 5684 5685 5686 5688 5689 5690 5690 5690 5691 5691 5692 5692 5693 5693 5693 5694 5694 5694 5695 5695 5696 5696 5696 5697 5697 5698 5698 5698 5699 5699 5699 5700 5700 5700 5701
5626 5626 5628 5629 5630 5631 5632 5633 5634 5635 5636 5637 5638 5640 5641 5643 5644 5645 5646 5647 5648 5650 5651 5652 5652 5653 5654 5655 5656 5657 5658 5659 5660 5661 5663 5664 5664 5665 5667 5668 5669 5670 5672 5672 5672 5672 5673 5674 5675 5677 5678 5679 5680 5681 5682 5684 5685 5685 5686 5687 5687 5688 5688 5689 5689 5689 5689 5690 5690 5690 5690 5690 5690 5690 5691 5691 5691 5691 5691 5691 5692 5692 5692 5693 5693 5694
5624 5625 5625 5626 5627 5628 5629 5631 5632 5632 5633 5635 5636 5637 5638 5640 5641 5642 5643 5644 5645 5646 5648 5649 5649 5650 5651 5651 5652 5653 5654 5654 5655 5656 5657 5658 5658 5659 5661 5662 5663 5665 5667 5666 5666 5667 5668 5668 5670 5672 5673 5673 5674 5675 5677 5678 5680 5681 5682 5682 5683 5683 5684 5684 5685 5685 5685 5685 5685 5685 5685 5685 5685 5685 5686 5686 5686 5686 5685 5685 5685 5685 5685 5685 5686 5686
5622 5623 5623 5624 5625 5626 5627 5628 5629 5629 5630 5631 5633 5634 5635 5637 5638 5639 5640 5641 5642 5643 5644 5645 5646 5647 5647 5648 5648 5648 5649 5650 5651 5652 5653 5653 5654 5655 5656 5657 5658 5659 5660 5660 5661 5662 5663 5663 5665 5666 5667 5668 5669 5670 5671 5673 5674 5675 5676 5677 5677 5678 5678 5679 5679 5679 5680 5680 5680 5680 5680 5680 5680 5680 5680 5680 5680 5680 5680 5680 5680 5679 5679 5679 5679 5679
5620 5620 5621 5622 5623 5624 5624 5625 5626 5626 5627 5628 5629 5630 5631 5633 5634 5635 5636 5637 5639 5640 5640 5641 5642 5643 5643 5644 5644 5644 5645 5647 5648 5648 5649 5650 5650 5651 5652 5652 5653 5654 5655 5655 5656 5657 5658 5659 5660 5661 5663 5663 5664 5665 5666 5667 5668 5669 5669 5670 5671 5671 5672 5672 5673 5673 5674 5674 5674 5674 5674 5674 5674 5674 5674 5673 5673 5673 5673 5673 5673 5672 5672 5672 5672 5672
5618 5618 5618 5619 5620 5621 5621 5621 5622 5623 5624 5625 5626 5627 5628 5629 5629 5630 5632 5633 5635 5636 5637 5637 5638 5639 5639 5639 5640 5641 5642 5643 5644 5645 5645 5646 5647 5647 5648 5648 5649 5650 5651 5651 5652 5653 5654 5655 5656 5657 5657 5658 5659 5659 5660 5660 5661 5662 5662 5663 5663 5664 5665 5665 5666 5666 5666 5667 5667 5667 5667 5667 5667 5667 5667 5666 5666 5666 5666 5666 5665 5665 5665 5665 5664 5665
5615 5615 5615 5616 5616 5617 5618 5618 5618 5619 5620 5621 5622 5622 5623 5624 5625 5626 5627 5629 5630 5631 5632 5633 5634 5634 5635 5636 5636 5637 5638 5640 5641 5641 5642 5643 5643 5643 5643 5643 5643 5645 5646 5646 5647 5649 5650 5651 5651 5651 5652 5653 5654 5654 5654 5655 5655 5656 5656 5657 5657 5658 5658 5658 5659 5659 5659 5660 5660 5660 5660 5660 5660 5660 5659 5659 5659 5659 5658 5658 5658 5658 5657 5657 5656 5656
5612 5612 5613 5613 5613 5614 5614 5615 5615 5615 5615 5616 5617 5618 5619 5620 5621 5622 5623 5624 5625 5626 5626 5627 5628 5629 5630 5631 5632 5633 5635 5636 5637 5637 5638 5638 5638 5638 5638 5637 5638 5639 5640 5641 5643 5644 5645 5645 5645 5646 5646 5647 5648 5649 5649 5650 5650 5650 5651 5651 5651 5651 5651 5652 5652 5652 5652 5652 5652 5652 5652 5652 5652 5652 5652 5652 5651 5651 5650 5650 5650 5650 5649 5648 5648 5648
5610 5610 5610 5610 5610 5610 5611 5611 5611 5611 5611 5611 5612 5613 5614 5615 5616 5617 5618 5619 5620 5621 5622 5622 5623 5623 5624 5625 5626 5628 5630 5631 5632 5632 5633 5634 5633 5633 5632 5632 5632 5633 5635 5636 5638 5639 5640 5639 5639 5640 5640 5641 5642 5642 5643 5643 5644 5644 5645 5645 5644 5645 5645 5645 5645 5645 5644 5644 5644 5644 5644 5644 5644 5643 5643 5643 5642 5642 5641 5640 5640 5640 5640 5639 5638 5638
5606 5607 5607 5607 5607 5607 5607 5608 5608 5607 5607 5607 5608 5608 5609 5609 5610 5611 5612 5613 5614 5615 5616 5617 5618 5618 5618 5619 5620 5621 5622 5624 5625 5626 5627 5628 5628 5628 5627 5626 5626 5627 5630 5632 5633 5634 5634 5634 5634 5635 5635 5635 5636 5636 5637 5637 5638 5638 5638 5638 5638 5638 5638 5638 5638 5638 5637 5637 5637 5637 5636 5636 5635 5635 5634 5634 5633 5632 5631 5630 5630 5630 5629 5628 5627 5627
5603 5603 5603 5603 5603 5603 5604 5604 5604 5603 5603 5603 5603 5603 5604 5604 5605 5605 5606 5607 5608 5609 5610 5611 5612 5612 5613 5614 5614 5614 5615 5617 5618 5618 5620 5621 5622 5622 5621 5620 5620 5622 5625 5626 5627 5628 5627 5627 5628 5629 5629 5629 5629 5630 5630 5631 5631 5631 5631 5631 5631 5631 5631 5631 5630 5630 5630 5630 5630 5629 5629 5628 5627 5627 5626 5625 5624 5623 5621 5620 5620 5619 5619 5617 5616 5615
5602 5601 5600 5599 5599 5599 5599 5600 5599 5599 5599 5599 5598 5599 5599 5599 5599 5600 5600 5601 5602 5602 5603 5604 5605 5606 5607 5608 5608 5609 5609 5610 5610 5611 5612 5613 5614 5615 5614 5613 5614 5617 5619 5620 5621 5620 5620 5620 5622 5622 5621 5621 5622 5623 5623 5623 5623 5624 5624 5624 5623 5623 5623 5623 5623 5622 5622 5622 5622 5621 5621 5620 5619 5619 5618 5617 5616 5615 5613 5611 5609 5608 5608 5607 5606 5604